Location: Tamazert
(32.6352°N, 5.2072°W)
Time: 23:02:48
(UTC+00:00)

OAO 2 Rocket - Pass Details

Date: 22 May 2022
Orbit: 675 x 745 km, 35.0° (Epoch: 24 June)

Event Time Altitude Azimuth Distance (km) Brightness Sun altitude
Exits shadow 04:03:47 21° 216° (SW) 1,497 4.4 -14.3°
Maximum altitude 04:06:41 44° 155° (SSE) 928 3.8 -13.8°
Drops below altitude 10° 04:11:19 10° 83° (E) 2,099 6.8 -13.0°
Sets 04:13:47 0° 77° (ENE) 3,016 8.0 -12.6°
